Weather History for Comox, BC

Change the Weather History Date:

Thursday, May 9, 2013

  Actual Average Record
Temperature  
Mean Temperature 58 °F -  
Max Temperature 68 °F 64 °F 69 °F (2005)
Min Temperature 48 °F 47 °F 39 °F (1999)
Degree Days  
Heating Degree Days 7    
Growing Degree Days 8 (Base 50)    
Moisture  
Dew Point 52 °F    
Average Humidity 79    
Maximum Humidity 100    
Minimum Humidity 64    
Precipitation  
Precipitation 0.00 in 0.05 in - ()
Sea Level Pressure  
Sea Level Pressure 30.17 in    
Wind  
Wind Speed 3 mph ()    
Max Wind Speed 8 mph    
Max Gust Speed -    
Visibility 18.0 miles    
Events Fog    
Averages and records for this station are not official NWS values.
T = Trace of Precipitation, MM = Missing Value Source: Averaged Metar Reports

Daily Weather History Graph

Daily Weather History Graph

Search for Another Location

Airport:

Trip Planner

Search our weather history database for the weather conditions in past years. The results will help you decide how hot, cold, wet, or windy it might be!

Date:

Astronomy

May. 09, 2013 Rise Set
Actual Time 5:42 AM PDT 8:49 PM PDT
Civil Twilight 5:05 AM PDT 9:28 PM PDT
Nautical Twilight 4:15 AM PDT 10:17 PM PDT
Astronomical Twilight 3:13 AM PDT 11:21 PM PDT
Moon 5:33 AM PDT (5/9) 8:50 PM PDT (5/9)
Length of Visible Light 16h 23m
Length of Day
15h 07m
Waning Crescent, 0% of the Moon is Illuminated
May 9
Waning Crescent
May 9
New
May 17
First Quarter
May 24
Full
May 31
Last Quarter

Hourly Weather History & Observations

Time (PDT) Temp. Dew Point Humidity Pressure Visibility Wind Dir Wind Speed Gust Speed Precip Events Conditions
12:00 AM 53.6 °F 51.8 °F 94% 30.13 in 20.0 mi Calm Calm - N/A   Clear
1:00 AM 53.6 °F 50.0 °F 88% 30.15 in 20.0 mi NW 2.3 mph - N/A   Clear
2:00 AM 51.8 °F 50.0 °F 94% 30.16 in 20.0 mi Calm Calm - N/A   Clear
3:00 AM 51.8 °F 50.0 °F 94% 30.17 in 20.0 mi West 2.3 mph - N/A   Clear
4:00 AM 51.8 °F 48.2 °F 88% 30.18 in 20.0 mi NW 2.3 mph - N/A   Clear
5:00 AM 50 °F 49 °F 93% 30.19 in 19 mi NW 3.5 mph - -  
5:00 AM 50.0 °F 48.2 °F 94% 30.19 in 20.0 mi WNW 3.5 mph - N/A   Clear
6:00 AM 50.0 °F 50.0 °F 100% 30.20 in 20.0 mi WNW 3.5 mph - N/A Fog Partly Cloudy
6:48 AM - - N/A% - 15.0 mi NW 2.3 mph - N/A   Mostly Cloudy
7:00 AM 51.8 °F 50.0 °F 94% 30.22 in 15.0 mi NNW 3.5 mph - N/A   Mostly Cloudy
8:00 AM 55.4 °F 51.8 °F 88% 30.22 in 15.0 mi NW 5.8 mph - N/A   Mostly Cloudy
9:00 AM 57.2 °F 51.8 °F 82% 30.23 in 15.0 mi NNE 4.6 mph - N/A   Scattered Clouds
10:00 AM 59.0 °F 51.8 °F 77% 30.22 in 15.0 mi ESE 4.6 mph - N/A   Partly Cloudy
11:00 AM 60 °F 54 °F 73% 30.22 in 15 mi East 6.9 mph - -   Scattered Clouds
11:00 AM 60.8 °F 53.6 °F 77% 30.22 in 15.0 mi ESE 5.8 mph - N/A   Partly Cloudy
12:00 PM 60.8 °F 55.4 °F 82% 30.22 in 15.0 mi East 8.1 mph - N/A   Partly Cloudy
1:00 PM 62.6 °F 51.8 °F 68% 30.20 in 15.0 mi SE 6.9 mph - N/A   Partly Cloudy
2:00 PM 66.2 °F 55.4 °F 68% 30.19 in 15.0 mi East 5.8 mph - N/A   Partly Cloudy
3:00 PM 66.2 °F 55.4 °F 68% 30.18 in 15.0 mi East 8.1 mph - N/A   Partly Cloudy
4:00 PM 66.2 °F 55.4 °F 68% 30.16 in 20.0 mi East 5.8 mph - N/A   Partly Cloudy
5:00 PM 66.2 °F 53.6 °F 64% 30.14 in 20.0 mi East 5.8 mph - N/A   Partly Cloudy
6:00 PM 66.2 °F 53.6 °F 64% 30.13 in 20.0 mi East 6.9 mph - N/A   Partly Cloudy
7:00 PM 68.0 °F 55.4 °F 64% 30.12 in 20.0 mi South 3.5 mph - N/A   Partly Cloudy
8:00 PM 64.4 °F 53.6 °F 68% 30.11 in 20.0 mi Calm Calm - N/A   Clear
9:00 PM 62.6 °F 51.8 °F 68% 30.12 in 20.0 mi South 2.3 mph - N/A   Clear
10:00 PM 62.6 °F 51.8 °F 68% 30.13 in 20.0 mi SW 3.5 mph - N/A   Clear
11:00 PM 59 °F 52 °F 70% 30.13 in 19 mi SW 2.3 mph - -  
11:00 PM 59.0 °F 51.8 °F 77% 30.13 in 20.0 mi SSW 2.3 mph - N/A   Clear